Location: El Frío
(10.0713°N, 67.9111°W)
Time: 09:24:44
(UTC+00:00)

KORONAS-FOTON - Pass Details

Date: 11 December 2025
Orbit: 433 x 448 km, 82.4° (Epoch: 15 January)

Event Time Altitude Azimuth Distance (km) Brightness Sun altitude
Rises 23:26:34 0° 178° (S) 2,439 7.5 -17.9°
Reaches altitude 10° 23:28:39 10° 174° (S) 1,566 6.4 -18.4°
Enters shadow 23:31:52 59° 108° (ESE) 517 3.5 -19.2°
